| time (UTC) | temp F | wind direction | speed knots | gust knots | rain 1hr in | rain 24hr in | rain mn in | humidity % | barometer mb |
| 20260506192520 | 44 | 34 | 2.6 | 5.2 | 0.17 | 1.42 | 1.31 | 99 | 1006.9 |
| 20260506191516 | 44 | 44 | 2.6 | 7.0 | 0.18 | 1.40 | 1.29 | 99 | 1006.8 |
| 20260506190532 | 44 | 35 | 3.5 | 7.8 | 0.20 | 1.37 | 1.26 | 99 | 1007.0 |
| 20260506185548 | 44 | 50 | 3.5 | 8.7 | 0.21 | 1.34 | 1.23 | 99 | 1006.8 |
| 20260506184524 | 44 | 48 | 5.2 | 9.6 | 0.20 | 1.30 | 1.19 | 99 | 1006.6 |
| 20260506183520 | 44 | 56 | 3.5 | 5.2 | 0.24 | 1.27 | 1.16 | 99 | 1007.0 |
| 20260506182517 | 44 | 50 | 6.1 | 12.2 | 0.28 | 1.25 | 1.14 | 99 | 1006.7 |
| 20260506181533 | 44 | 36 | 5.2 | 11.3 | 0.27 | 1.22 | 1.11 | 99 | 1006.8 |
| 20260506180530 | 45 | 45 | 6.1 | 9.6 | 0.25 | 1.17 | 1.06 | 99 | 1006.7 |
| 20260506175526 | 45 | 39 | 5.2 | 9.6 | 0.23 | 1.13 | 1.02 | 99 | 1006.6 |
| 20260506174522 | 45 | 43 | 2.6 | 6.1 | 0.22 | 1.10 | 0.99 | 99 | 1007.0 |
| 20260506173538 | 45 | 38 | 4.3 | 7.8 | 0.18 | 1.03 | 0.92 | 99 | 1006.4 |
| 20260506172534 | 46 | 40 | 5.2 | 7.8 | 0.15 | 0.97 | 0.86 | 99 | 1006.3 |
| 20260506171531 | 46 | 36 | 3.5 | 6.1 | 0.15 | 0.95 | 0.84 | 99 | 1006.8 |
| 20260506170527 | 46 | 45 | 3.5 | 6.1 | 0.16 | 0.92 | 0.81 | 99 | 1007.0 |
| 20260506165523 | 46 | 43 | 3.5 | 6.1 | 0.16 | 0.90 | 0.79 | 99 | 1007.3 |
| 20260506164519 | 46 | 69 | 2.6 | 6.1 | 0.17 | 0.88 | 0.77 | 99 | 1007.2 |
| 20260506163535 | 46 | 37 | 2.6 | 6.1 | 0.20 | 0.85 | 0.74 | 99 | 1007.4 |
| 20260506162551 | 46 | 30 | 1.7 | 7.0 | 0.21 | 0.82 | 0.71 | 99 | 1007.2 |
| 20260506161527 | 46 | 39 | 3.5 | 7.0 | 0.22 | 0.80 | 0.69 | 99 | 1007.2 |
| 20260506160524 | 46 | 37 | 3.5 | 7.0 | 0.22 | 0.76 | 0.65 | 99 | 1007.4 |
| 20260506155520 | 47 | 37 | 2.6 | 6.1 | 0.23 | 0.74 | 0.63 | 99 | 1007.4 |
| 20260506154516 | 47 | 42 | 2.6 | 5.2 | 0.23 | 0.71 | 0.60 | 99 | 1007.6 |
| 20260506153551 | 47 | 36 | 2.6 | 5.2 | 0.22 | 0.65 | 0.54 | 99 | 1007.5 |
| 20260506152527 | 47 | 33 | 1.7 | 3.5 | 0.21 | 0.61 | 0.50 | 99 | 1007.8 |
| 20260506151524 | 48 | 38 | 3.5 | 6.1 | 0.22 | 0.58 | 0.47 | 99 | 1007.8 |
| 20260506150519 | 48 | 40 | 2.6 | 6.1 | 0.20 | 0.54 | 0.43 | 99 | 1007.9 |
| 20260506145556 | 48 | 39 | 1.7 | 5.2 | 0.19 | 0.51 | 0.40 | 99 | 1008.3 |
| 20260506144533 | 48 | 49 | 2.6 | 5.2 | 0.18 | 0.48 | 0.37 | 99 | 1008.4 |
| 20260506143529 | 48 | 52 | 1.7 | 3.5 | 0.15 | 0.43 | 0.32 | 99 | 1008.5 |
| 20260506142525 | 48 | 47 | 2.6 | 7.0 | 0.14 | 0.40 | 0.29 | 99 | 1008.4 |
| 20260506141522 | 49 | 26 | 2.6 | 5.2 | 0.12 | 0.36 | 0.25 | 99 | 1008.3 |
| 20260506140518 | 49 | 30 | 3.5 | 6.1 | 0.12 | 0.34 | 0.23 | 99 | 1008.1 |
| 20260506135534 | 50 | 52 | 2.6 | 7.8 | 0.12 | 0.32 | 0.21 | 99 | 1008.0 |
| 20260506134530 | 51 | 40 | 1.7 | 5.2 | 0.12 | 0.30 | 0.19 | 99 | 1008.0 |
| 20260506133526 | 51 | 45 | 2.6 | 6.1 | 0.11 | 0.28 | 0.17 | 99 | 1008.0 |
| 20260506132522 | 51 | 47 | 1.7 | 3.5 | 0.11 | 0.26 | 0.15 | 99 | 1007.9 |
| 20260506131518 | 51 | 22 | 1.7 | 5.2 | 0.10 | 0.24 | 0.13 | 99 | 1008.1 |
| 20260506130534 | 52 | 62 | 3.5 | 7.0 | 0.08 | 0.22 | 0.11 | 99 | 1007.9 |
| 20260506125530 | 52 | 29 | 1.7 | 5.2 | 0.06 | 0.20 | 0.09 | 99 | 1008.3 |
| 20260506124526 | 52 | 41 | 3.5 | 6.1 | 0.04 | 0.18 | 0.07 | 99 | 1008.5 |
| 20260506123522 | 53 | 32 | 1.7 | 3.5 | 0.03 | 0.17 | 0.06 | 99 | 1008.7 |
| 20260506122518 | 53 | 33 | 2.6 | 5.2 | 0.01 | 0.15 | 0.04 | 99 | 1008.8 |
| 20260506121534 | 53 | 32 | 2.6 | 6.1 | 0.00 | 0.14 | 0.03 | 99 | 1008.3 |
| 20260506120529 | 53 | 29 | 3.5 | 7.8 | 0.00 | 0.14 | 0.03 | 99 | 1007.8 |
| 20260506115545 | 53 | 32 | 1.7 | 3.5 | 0.01 | 0.14 | 0.03 | 99 | 1008.0 |
| 20260506114523 | 54 | 40 | 0.9 | 1.7 | 0.01 | 0.14 | 0.03 | 99 | 1008.1 |
| 20260506113538 | 54 | 280 | 0.0 | 0.9 | 0.01 | 0.14 | 0.03 | 99 | 1008.2 |
| 20260506112534 | 54 | 40 | 2.6 | 6.1 | 0.01 | 0.14 | 0.03 | 99 | 1007.7 |
| 20260506111530 | 55 | 17 | 1.7 | 6.1 | 0.01 | 0.14 | 0.03 | 99 | 1007.9 |
| 20260506110525 | 55 | 0.0 | 0.0 | 0.01 | 0.14 | 0.03 | 99 | 1008.0 | |
| 20260506105522 | 55 | 141 | 0.0 | 0.9 | 0.00 | 0.13 | 0.02 | 99 | 1007.9 |
| 20260506104517 | 55 | 0.0 | 0.0 | 0.00 | 0.13 | 0.02 | 99 | 1007.5 | |
| 20260506103613 | 55 | 0.0 | 0.0 | 0.00 | 0.13 | 0.02 | 99 | 1007.6 | |
| 20260506102529 | 55 | 0.0 | 0.0 | 0.00 | 0.13 | 0.02 | 99 | 1007.6 | |
| 20260506101548 | 55 | 0.0 | 0.0 | 0.00 | 0.13 | 0.02 | 99 | 1007.3 | |
| 20260506100522 | 55 | 0.0 | 0.0 | 0.00 | 0.13 | 0.02 | 99 | 1007.3 | |
| 20260506095518 | 55 | 0.0 | 0.0 | 0.00 | 0.13 | 0.02 | 99 | 1007.5 | |
| 20260506094534 | 55 | 0.0 | 0.0 | 0.00 | 0.13 | 0.02 | 99 | 1007.4 | |
| 20260506093530 | 54 | 0.0 | 0.0 | 0.00 | 0.13 | 0.02 | 99 | 1007.2 | |
| 20260506092546 | 55 | 0.0 | 0.0 | 0.00 | 0.13 | 0.02 | 99 | 1007.4 | |
| 20260506091522 | 55 | 0.0 | 0.0 | 0.00 | 0.13 | 0.02 | 99 | 1007.6 | |
| 20260506090518 | 55 | 0.0 | 0.0 | 0.00 | 0.13 | 0.02 | 99 | 1007.5 | |
| 20260506085554 | 55 | 0.0 | 0.0 | 0.00 | 0.13 | 0.02 | 99 | 1007.6 | |
| 20260506084530 | 55 | 0.0 | 0.0 | 0.00 | 0.13 | 0.02 | 99 | 1007.9 | |
| 20260506083527 | 55 | 0.0 | 0.0 | 0.00 | 0.13 | 0.02 | 99 | 1008.0 | |
| 20260506082523 | 55 | 0.0 | 0.0 | 0.00 | 0.13 | 0.02 | 99 | 1008.2 | |
| 20260506081519 | 55 | 0.0 | 0.0 | 0.00 | 0.13 | 0.02 | 99 | 1007.9 | |
| 20260506080535 | 55 | 0.0 | 0.0 | 0.00 | 0.13 | 0.02 | 99 | 1008.1 | |
| 20260506073523 | 55 | 0.0 | 0.0 | 0.00 | 0.13 | 0.02 | 99 | 1008.2 | |
| 20260506072520 | 56 | 0.0 | 0.0 | 0.00 | 0.13 | 0.02 | 99 | 1008.1 | |
| 20260506071516 | 56 | 0.0 | 0.0 | 0.00 | 0.13 | 0.02 | 99 | 1008.3 | |
| 20260506070531 | 56 | 0.0 | 0.0 | 0.00 | 0.13 | 0.02 | 99 | 1008.3 | |
| 20260506062516 | 56 | 0.0 | 0.0 | 0.00 | 0.13 | 0.02 | 99 | 1008.4 | |
| 20260506061532 | 56 | 0.0 | 0.0 | 0.00 | 0.13 | 0.02 | 99 | 1008.3 | |
| 20260506060528 | 56 | 0.0 | 0.0 | 0.00 | 0.13 | 0.02 | 99 | 1008.3 | |
| 20260506050524 | 57 | 0.0 | 0.0 | 0.02 | 0.13 | 0.02 | 99 | 1009.0 | |
| 20260506044540 | 57 | 0.0 | 0.0 | 0.03 | 0.13 | 0.02 | 99 | 1009.1 | |
| 20260506043535 | 57 | 0.0 | 0.0 | 0.03 | 0.13 | 0.02 | 99 | 1008.7 | |
| 20260506042551 | 58 | 0.0 | 0.0 | 0.03 | 0.13 | 0.02 | 99 | 1008.7 | |
| 20260506041528 | 57 | 316 | 0.9 | 2.6 | 0.02 | 0.12 | 0.01 | 99 | 1008.6 |
| 20260506040545 | 58 | 0.0 | 0.0 | 0.01 | 0.11 | 0.00 | 99 | 1008.6 | |
| 20260506035521 | 58 | 0.0 | 0.0 | 0.00 | 0.10 | 0.10 | 99 | 1008.3 | |
| 20260506034517 | 57 | 0.0 | 0.0 | 0.00 | 0.10 | 0.10 | 99 | 1008.4 | |
| 20260506033532 | 58 | 285 | 0.0 | 0.9 | 0.00 | 0.10 | 0.10 | 98 | 1008.3 |
| 20260506032529 | 58 | 0.0 | 0.0 | 0.00 | 0.10 | 0.10 | 97 | 1008.1 | |
| 20260506031524 | 58 | 0.0 | 0.0 | 0.00 | 0.10 | 0.10 | 97 | 1008.0 | |
| 20260506030540 | 58 | 0.0 | 0.0 | 0.00 | 0.10 | 0.10 | 97 | 1007.9 | |
| 20260506025516 | 58 | 0.0 | 0.0 | 0.00 | 0.10 | 0.10 | 97 | 1007.9 | |
| 20260506024532 | 58 | 0.0 | 0.0 | 0.00 | 0.10 | 0.10 | 97 | 1007.8 | |
| 20260506023529 | 58 | 0.0 | 0.0 | 0.00 | 0.10 | 0.10 | 97 | 1007.8 | |
| 20260506022526 | 58 | 0.0 | 0.0 | 0.00 | 0.10 | 0.10 | 97 | 1007.8 | |
| 20260506021521 | 58 | 0.0 | 0.0 | 0.00 | 0.10 | 0.10 | 97 | 1007.9 | |
| 20260506020516 | 58 | 0.0 | 0.0 | 0.00 | 0.10 | 0.10 | 97 | 1007.7 | |
| 20260506015552 | 58 | 0.0 | 0.0 | 0.00 | 0.10 | 0.10 | 97 | 1007.7 | |
| 20260506014548 | 57 | 0.0 | 0.0 | 0.00 | 0.10 | 0.10 | 96 | 1007.7 | |
| 20260506013524 | 58 | 0.0 | 0.0 | 0.00 | 0.10 | 0.10 | 96 | 1007.6 | |
| 20260506012521 | 58 | 0.0 | 0.0 | 0.00 | 0.10 | 0.10 | 95 | 1007.4 | |
| 20260506011517 | 57 | 0.0 | 0.0 | 0.00 | 0.10 | 0.10 | 98 | 1007.5 | |
| 20260506010533 | 58 | 0.0 | 0.0 | 0.00 | 0.10 | 0.10 | 97 | 1007.1 | |
| 20260506005649 | 57 | 0.0 | 0.0 | 0.00 | 0.10 | 0.10 | 97 | 1006.7 | |
| 20260506004525 | 58 | 0.0 | 0.0 | 0.00 | 0.10 | 0.10 | 95 | 1006.5 | |
| 20260506003521 | 58 | 0.0 | 0.0 | 0.00 | 0.10 | 0.10 | 95 | 1006.6 | |
| 20260506002516 | 59 | 0.0 | 0.0 | 0.00 | 0.10 | 0.10 | 94 | 1006.6 | |
| 20260506001553 | 60 | 0.0 | 0.0 | 0.00 | 0.10 | 0.10 | 92 | 1006.5 | |
| 20260506000549 | 61 | 0.0 | 0.0 | 0.00 | 0.10 | 0.10 | 90 | 1006.4 | |
| 20260505235524 | 61 | 0.0 | 0.0 | 0.00 | 0.10 | 0.10 | 92 | 1006.5 | |
| 20260505234520 | 61 | 0.0 | 0.0 | 0.00 | 0.10 | 0.10 | 93 | 1006.3 | |
| 20260505233517 | 61 | 0.0 | 0.0 | 0.00 | 0.10 | 0.10 | 91 | 1006.2 | |
| 20260505232534 | 62 | 0.0 | 0.0 | 0.00 | 0.10 | 0.10 | 90 | 1006.3 | |
| 20260505231529 | 64 | 141 | 0.9 | 1.7 | 0.00 | 0.10 | 0.10 | 84 | 1006.0 |
| 20260505230537 | 65 | 228 | 0.9 | 1.7 | 0.00 | 0.10 | 0.10 | 77 | 1006.3 |
| 20260505225522 | 65 | 0.0 | 0.0 | 0.00 | 0.10 | 0.10 | 76 | 1006.4 | |
| 20260505224517 | 66 | 201 | 1.7 | 5.2 | 0.00 | 0.10 | 0.10 | 75 | 1006.4 |
| 20260505223534 | 65 | 199 | 0.9 | 3.5 | 0.00 | 0.10 | 0.10 | 78 | 1006.2 |
| 20260505222530 | 66 | 213 | 1.7 | 3.5 | 0.00 | 0.10 | 0.10 | 78 | 1006.0 |
| 20260505221547 | 66 | 216 | 1.7 | 5.2 | 0.00 | 0.10 | 0.10 | 76 | 1005.7 |
| 20260505220523 | 66 | 166 | 0.9 | 3.5 | 0.00 | 0.10 | 0.10 | 74 | 1005.5 |
| 20260505215519 | 67 | 166 | 1.7 | 2.6 | 0.00 | 0.10 | 0.10 | 73 | 1005.7 |
| 20260505214535 | 67 | 276 | 4.3 | 8.7 | 0.00 | 0.10 | 0.10 | 71 | 1005.8 |
| 20260505213551 | 68 | 276 | 4.3 | 7.8 | 0.00 | 0.10 | 0.10 | 70 | 1006.0 |
| 20260505212528 | 67 | 299 | 1.7 | 3.5 | 0.00 | 0.10 | 0.10 | 78 | 1006.0 |
| 20260505211544 | 67 | 32 | 0.0 | 0.9 | 0.00 | 0.10 | 0.10 | 81 | 1005.5 |
| 20260505210520 | 67 | 170 | 1.7 | 3.5 | 0.00 | 0.10 | 0.10 | 79 | 1004.9 |
| 20260505205516 | 67 | 138 | 1.7 | 5.2 | 0.01 | 0.10 | 0.10 | 81 | 1004.4 |
| 20260505204531 | 66 | 169 | 1.7 | 5.2 | 0.06 | 0.10 | 0.10 | 85 | 1004.6 |
| 20260505203528 | 67 | 0.0 | 0.0 | 0.10 | 0.10 | 0.10 | 84 | 1004.1 | |
| 20260505202525 | 66 | 0.0 | 0.0 | 0.10 | 0.10 | 0.10 | 81 | 1004.0 | |
| 20260505201520 | 65 | 277 | 4.3 | 9.6 | 0.10 | 0.10 | 0.10 | 80 | 1004.9 |
| 20260505200516 | 64 | 276 | 7.0 | 13.0 | 0.10 | 0.10 | 0.10 | 84 | 1004.9 |
| 20260505195532 | 64 | 260 | 7.8 | 16.5 | 0.09 | 0.09 | 0.09 | 83 | 1005.1 |
| 20260505194528 | 68 | 278 | 10.4 | 19.1 | 0.04 | 0.04 | 0.04 | 73 | 1004.3 |
| 20260505193524 | 76 | 256 | 7.0 | 15.6 | 0.00 | 0.00 | 0.00 | 51 | 1003.1 |